Location: Hains Lake
(37.8540°N, 99.8578°W)
Time: 12:41:01
(UTC+00:00)

FALCON 9 DEB - Pass Details

Date: 11 December 2019
Orbit: 431 x 443 km, 53.0° (Epoch: 26 January)

Event Time Altitude Azimuth Distance (km) Brightness Sun altitude
Rises 23:50:36 0° 242° (WSW) 2,422 9.7 -6.1°
Reaches altitude 10° 23:52:46 10° 248° (WSW) 1,554 7.8 -6.5°
Maximum altitude 23:56:08 44° 322° (NW) 619 4.0 -7.1°
Drops below altitude 10° 23:59:30 10° 37° (NE) 1,557 5.4 -7.8°
Enters shadow 23:59:57 - 39° (NE) 1,734 5.6 -7.8°
